Regional Weather Roundup
Issued by NWS

Home | Current Version | Previous Version | Graphics & Text | Print | Product List | Glossary Off
Versions: 1 2 3 4 5 6 7 8 9 10 11 12 13 14 15 16 17 18 19 20 21 22 23 24 25 26 27 28 29 30 31 32 33 34 35 36 37 38 39 40 41 42 43 44 45 46 47 48 49 50

000
ASUS43 KTOP 271259
RWRKS

WEATHER ROUNDUP FOR KANSAS
NATIONAL WEATHER SERVICE GOODLAND KS
800 AM CDT THU AUG 27 2015

NOTE:  "FAIR" INDICATES FEW OR NO CLOUDS BELOW 12,000 FEET WITH NO
SIGNIFICANT WEATHER AND/OR OBSTRUCTIONS TO VISIBILITY.

KSZ001>006-013>018-027>032-041>047-271400-
NORTHWEST KANSAS

CITY           SKY/WX    TMP DP  RH WIND       PRES   REMARKS
GOODLAND       CLOUDY    71  52  50 S12       29.98F
HAYS           MOSUNNY   70  55  60 SE6       29.97R
HILL CITY      MOSUNNY   71  60  68 SW6       29.95S
RUSSELL        PTSUNNY   70  64  81 S10       29.96S
$$

KSZ061>065-074>080-084>089-271400-
SOUTHWEST KANSAS

CITY           SKY/WX    TMP DP  RH WIND       PRES   REMARKS
DODGE CITY     MOCLDY    69  59  70 S10       30.03F
ELKHART          N/A     70  54  57 SW6         N/A
GARDEN CITY    CLOUDY    71  59  65 S8        30.02S
GREAT BEND     PTSUNNY   68  61  77 S7        29.99S
LIBERAL        CLOUDY    70  57  64 SW10      30.07S
$$

KSZ066>073-081>083-090>101-271400-
SOUTHEAST KANSAS

CITY           SKY/WX    TMP DP  RH WIND       PRES   REMARKS
CHANUTE        TSTM      69  64  84 VRB5G17   30.15R
COFFEYVILLE    CLOUDY    69  65  86 NE25G31   30.12R
HUTCHINSON     PTSUNNY   72  68  87 S5        30.00S
NEWTON         PTSUNNY   70  63  78 S12       30.04R
WICHITA INTL   PTSUNNY   71  66  84 S12       30.02R
WICHITA JABRA  PTSUNNY   71  66  84 S10       30.02R
WICHITA MCCONL MOSUNNY   71  64  78 SE9       30.02R
WINFIELD       MOSUNNY   70  64  81 SE7       30.04S
$$

KSZ007>012-019>026-033>040-048>060-102>105-271400-
NORTHEAST KANSAS

CITY           SKY/WX    TMP DP  RH WIND       PRES   REMARKS
CONCORDIA      PTSUNNY   70  68  93 S10       29.97F
EMPORIA        MOSUNNY   67  61  81 SE12      30.06R
LAWRENCE       MOSUNNY   65  60  84 SE9       30.09R
MANHATTAN      PTSUNNY   71  62  73 SE6       30.01S
OLATHE IND     CLOUDY    64  60  87 S9        30.10S
OLATHE EXE     TSTM      62  60  93 SE8G20    30.09S FOG
SALINA         PTSUNNY   73  68  84 SE7       29.98S
TOPEKA BILLARD SUNNY     68  63  84 SE8       30.06R
TOPEKA FORBES  SUNNY     69  62  78 SE13      30.05R
$$


USA.gov is the U.S. government's official web portal to all federal, state and local government web resources and services.